カタログに戻る

STARLINK-4382

運用中通信SSO
NORAD 53194·PAYLOAD·🇺🇸 United States

打ち上げ Jul 22, 2022 から Vandenberg Space Force Base

Loading…

次のパス (今後24時間)

TLE

最新Source: CelesTrak SupGP

元期: Sep 15, 2026, 01:52 UTC

1 53194C 22084F   26258.07826389  .00064013  00000+0  19869-2 0  2580
2 53194  97.2830 313.8854 0001572  87.9995 356.5722 15.33410299    15

AllMySatでSTARLINK-4382をリアルタイム追跡

Download on the App Store